Current Version              Previous Version:    01  02  03  04  05  06  07  08  09  10  11  12  13  14  15  16  17  18  19  20  21  22  23  24  25  26  27  28  29  30  
   31  32  33  34  35  36  37  38  39  40  41  42  43  44  45  46  47  48  49  50  51  52  53  54  55  56  57  58  59  60  

[Printable]
830
ASUS44 KEWX 241210
RWRTX
SOUTH TEXAS REGIONAL WEATHER ROUNDUP
NATIONAL WEATHER SERVICE AUSTIN/SAN ANTONIO TX
700 AM CDT FRI OCT 24 2014

NOTE: "FAIR" INDICATED FEW OR NO CLOUDS BELOW 12,000 FEET WITH NO
SIGNIFICANT WEATHER AND/OR OBSTRUCTIONS TO VISIBILITY.

* - THESE STATIONS ARE NOT NWS OR FAA STATIONS...AND ARE NOT SUBJECT
    TO NWS AND FAA QUALITY CONTROL.

TXZ171-172-183>190-241300-
TEXAS HILL COUNTRY AND EDWARDS PLATEAU

CITY           SKY/WX    TMP DP  RH WIND       PRES   REMARKS
JUNCTION       CLEAR     53  52  96 NW3       30.16R FOG
6HR MIN TEMP:  53; 6HR MAX TEMP:  60;

*LLANO         NOT AVBL
BURNET         CLEAR     60  54  80 CALM      30.16S
6HR MIN TEMP:  60; 6HR MAX TEMP:  66;

*HORSESHOE BAY CLEAR     57  57 100 CALM      30.15R
6HR MIN TEMP:  57; 6HR MAX TEMP:  64;

*KERRVILLE     CLEAR     54  52  95 CALM      30.16S FOG
6HR MIN TEMP:  54; 6HR MAX TEMP:  59;

*FREDERICKSBRG CLEAR     55  53  95 CALM      30.16R
6HR MIN TEMP:  54; 6HR MAX TEMP:  61;

*ROCKSPRINGS   CLEAR     59  57  94 SE3       30.18R
*BOERNE STAGE  CLEAR     54  52  94 CALM      30.16R
*CASTROVILLE   CLEAR     59  54  82 NW6       30.15R
HONDO          CLEAR     53  53 100 N6        30.15R
6HR MIN TEMP:  53; 6HR MAX TEMP:  59;

*UVALDE        CLEAR     59  58  95 NE6       30.14R
6HR MIN TEMP:  59; 6HR MAX TEMP:  65;

DEL RIO        CLEAR     62  60  93 E3        30.10R
6HR MIN TEMP:  62; 6HR MAX TEMP:  67;

LAUGHLIN AFB   CLEAR     59  58  94 E5        30.11R
6HR MIN TEMP:  59; 6HR MAX TEMP:  64;

CARRIZO SPRGS  CLEAR     57  55  94 CALM      30.11R
$$

TXZ173-191>194-202-209-217>225-228-241300-
CENTRAL AND SOUTH CENTRAL TEXAS

CITY           SKY/WX    TMP DP  RH WIND       PRES   REMARKS
GEORGETOWN     CLEAR     55  52  88 CALM      30.14S
AUSTIN/BERGSTM CLEAR     55  54  96 CALM      30.13S
6HR MIN TEMP:  53; 6HR MAX TEMP:  60;

AUSTIN/MABRY   PTCLDY    61  56  83 CALM      30.15R
6HR MIN TEMP:  61; 6HR MAX TEMP:  66;

*AUSTIN/EXEC   CLOUDY    59  55  88 CALM      30.15R
*LAGO VISTA    CLEAR     65  55  70 S5        30.15S
6HR MIN TEMP:  64; 6HR MAX TEMP:  67;

SAN MARCOS     CLEAR     57  52  82 CALM      30.15R
6HR MIN TEMP:  57; 6HR MAX TEMP:  63;

NEW BRAUNFELS  CLEAR     59  56  89 CALM      30.12R
6HR MIN TEMP:  58; 6HR MAX TEMP:  64;

RANDOLPH AFB   CLEAR     59  54  85 N3        30.13R
6HR MIN TEMP:  59; 6HR MAX TEMP:  65;

PT SAN ANTONIO CLEAR     60  56  88 NW2       30.11R
6HR MIN TEMP:  60; 6HR MAX TEMP:  65;

SAN ANTONIO    CLEAR     62  57  83 NW3       30.13S
6HR MIN TEMP:  60; 6HR MAX TEMP:  69;

STINSON FIELD  CLEAR     60  56  86 CALM      30.11S
6HR MIN TEMP:  59; 6HR MAX TEMP:  66;

*PLEASANTON    CLEAR     58  55  90 CALM      30.13R
6HR MIN TEMP:  57; 6HR MAX TEMP:  64;

*LA GRANGE     CLEAR     57  55  92 CALM      30.12R
6HR MIN TEMP:  57; 6HR MAX TEMP:  62;

*GIDDINGS      PTCLDY    55  52  89 CALM      30.18R
6HR MIN TEMP:  55; 6HR MAX TEMP:  62;

*GONZALES      CLEAR     58  56  95 CALM      30.13R
6HR MIN TEMP:  57; 6HR MAX TEMP:  65;

$$

TXZ163>164-176>182-195>201-210>213-226-227-235-241300-
SOUTHEAST TEXAS

CITY           SKY/WX    TMP DP  RH WIND       PRES   REMARKS
COLLEGE STN    CLEAR     59  54  83 CALM      30.14R
6HR MIN TEMP:  58; 6HR MAX TEMP:  63;

*BRYAN         CLEAR     54  53  96 CALM      30.16R
6HR MIN TEMP:  54; 6HR MAX TEMP:  58;

*CALDWELL      PTCLDY    57  55  94 CALM      30.17S
*CROCKETT      CLEAR     54  54 100 NE3       30.19R
*BRENHAM       CLEAR     57  55  91 CALM      30.14S
6HR MIN TEMP:  57; 6HR MAX TEMP:  61;

HUNTSVILLE     CLEAR     54  51  90 CALM      30.15R
6HR MIN TEMP:  53; 6HR MAX TEMP:  57;

CONROE         CLEAR     50  49  96 CALM      30.15R
6HR MIN TEMP:  50; 6HR MAX TEMP:  55;

HOUSTON BUSH   CLEAR     55  52  89 CALM      30.14R
6HR MIN TEMP:  54; 6HR MAX TEMP:  59;

HOUSTON HOBBY  CLEAR     58  54  86 N3        30.12S
6HR MIN TEMP:  58; 6HR MAX TEMP:  64;

*HOUSTON SW AP CLEAR     50  49  96 CALM      30.13S
6HR MIN TEMP:  50; 6HR MAX TEMP:  54;

PEARLAND       CLEAR     58  54  86 NE5       30.14R
6HR MIN TEMP:  58; 6HR MAX TEMP:  62;

HOUSTON HOOKS  CLEAR     56  53  90 CALM      30.14R
6HR MIN TEMP:  56; 6HR MAX TEMP:  61;

ELLINGTON FLD  CLEAR     59  55  88 N5        30.14R
SUGAR LAND     CLEAR     58  53  84 NE5       30.12S
6HR MIN TEMP:  57; 6HR MAX TEMP:  61;

*HOUSTON EXEC  PTCLDY    54 N/A N/A NE3       30.15R
*CLEVELAND MUN NOT AVBL
*WHARTON       CLEAR     55  54  94 NE3       30.14R
6HR MIN TEMP:  54; 6HR MAX TEMP:  58;

*COLUMBUS      FAIR      53  52  95 CALM      30.13R
6HR MIN TEMP:  53; 6HR MAX TEMP:  58;

$$

TXZ214>216-236>238-241300-
THE UPPER TEXAS COAST

CITY           SKY/WX    TMP DP  RH WIND       PRES   REMARKS
*ORANGE        CLEAR    N/A N/A N/A N3        30.15R HAZE
PORT ARTHUR    CLEAR     52  49  89 N6        30.13R
6HR MIN TEMP:  51; 6HR MAX TEMP:  59;

GALVESTON      CLEAR     63  59  87 NE9       30.12R
6HR MIN TEMP:  63; 6HR MAX TEMP:  67;

ANGLETON       CLEAR     55  55 100 N5        30.12R
6HR MIN TEMP:  54; 6HR MAX TEMP:  57;

*BAY CITY        N/A     58  57  97 CALM      30.11S
PALACIOS       CLEAR     57  55  93 NE6       30.11R
6HR MIN TEMP:  57; 6HR MAX TEMP:  65;

$$

TXZ229>234-239>247-241300-
TEXAS COASTAL BEND AND RIO GRANDE PLAINS

CITY           SKY/WX    TMP DP  RH WIND       PRES   REMARKS
VICTORIA       CLEAR     57  54  89 CALM      30.12R
6HR MIN TEMP:  57; 6HR MAX TEMP:  62;

*BEEVILLE      CLEAR     61  60  96 NE5       30.12R
6HR MIN TEMP:  61; 6HR MAX TEMP:  66;

ROCKPORT       CLEAR     66  64  93 N5        30.10R
6HR MIN TEMP:  65; 6HR MAX TEMP:  72;

*PORT ARANSAS  CLEAR     69  65  87 N6        30.09S
6HR MIN TEMP:  69; 6HR MAX TEMP:  73;

*PORT LAVACA   CLEAR     59  57  92 NE6       30.12R
6HR MIN TEMP:  59; 6HR MAX TEMP:  66;

*INGLESIDE     CLEAR     64  62  94 N5        30.10S
CORPUS CHRISTI PTCLDY    64  62  93 N3        30.10S
6HR MIN TEMP:  64; 6HR MAX TEMP:  67;

CORPUS NAS     PTCLDY    71  69  93 N8        30.09S
6HR MIN TEMP:  67; 6HR MAX TEMP:  71;

*ROBSTOWN      NOT AVBL
ALICE          CLEAR     62  60  93 NW5       30.10S
6HR MIN TEMP:  62; 6HR MAX TEMP:  67;

KINGSVILLE NAS PTCLDY    61  61 100 NW6       30.10S FOG
6HR MIN TEMP:  61; 6HR MAX TEMP:  66;

COTULLA        CLEAR     64  59  83 CALM      30.12R
6HR MIN TEMP:  63; 6HR MAX TEMP:  71;

*FAITH RANCH   CLEAR     63  59  88 SE6       30.12R
LAREDO         CLEAR     64  62  93 CALM      30.14R
6HR MIN TEMP:  64; 6HR MAX TEMP:  70;

$$

TXZ248>255-241300-
DEEP SOUTH TEXAS

CITY           SKY/WX    TMP DP  RH WIND       PRES   REMARKS
BROWNSVILLE    CLEAR     68  66  93 N5        30.07R
6HR MIN TEMP:  66; 6HR MAX TEMP:  69;

PORT ISABEL    CLEAR     69  66  90 N7        30.07R
6HR MIN TEMP:  68; 6HR MAX TEMP:  72;

*SOUTH PADRE   PTCLDY    75  64  69 NE8       30.07R
HARLINGEN      CLEAR     65  64  97 N6        30.08R
6HR MIN TEMP:  63; 6HR MAX TEMP:  67;

*HEBBRONVILLE  CLEAR     60  58  93 CALM      30.12S